Regional Weather Roundup
Issued by NWS Wakefield, VA

Home | Current Version | Previous Version | Graphics & Text | Print | Product List | Glossary On
Versions: 1 2 3 4 5 6 7 8 9 10 11 12 13 14 15 16 17 18 19 20 21 22 23 24 25 26 27 28 29 30 31 32 33 34 35 36 37 38 39 40 41 42 43 44 45 46 47 48 49 50
000
ASUS41 KAKQ 262210
RWRAKQ

REGIONAL WEATHER ROUNDUP
NATIONAL WEATHER SERVICE WAKEFIELD VA
500 PM EST WED NOV 26 2014

Note: "fair" indicates few or no clouds below 12,000 feet with no
significant weather and/or obstructions to visibility. * = Denotes
station may not report precipitation (e.g., rain,snow,etc.),
thunder or fog.

VAZ042-051-052>054-056-262300-
NORTHERN VIRGINIA

CITY           SKY/WX    TMP DP  RH WIND       PRES   REMARKS
WASH NATIONAL  FLURRIES  38  33  82 NW9       29.96S
DULLES         FLURRIES  33  32  96 NW9       29.96S
FORT BELVOIR   LGT RAIN  36  32  87 NW7       29.97S
QUANTICO       FLURRIES  36  32  85 N9        29.98R
FREDERICKSBRG* LGT RAIN  37  37 100 NW8       29.97R
STAFFORD*      LGT RAIN  34  34 100 NW7       30.01R
WARRENTON      LGT RAIN  36  36 100 CALM      29.97R
CULPEPER*      LGT RAIN  36  36 100 N3        29.98R
MANASSAS*      CLOUDY    36  36 100 N8        29.98R
LEESBURG*      MIX PCPN  34  34 100 NW10      29.97S
WINCHESTER     LGT RAIN  36  32  87 W3        29.97F
FRONT ROYAL*   NOT AVBL
LURAY*         SNOW      34  34 100 CALM      29.98S VSB 1/4
$$

VAZ048-049-060>072-079>083-262300-
CENTRAL AND SOUTH CENTRAL VIRGINIA

CITY           SKY/WX    TMP DP  RH WIND       PRES   REMARKS
RICHMOND       LGT RAIN  38  35  89 NW15G21   29.95R
CHESTERFIELD*  CLOUDY    37  25  60 NW10G16   29.97R
PETERSBURG*    CLOUDY    38  37  95 NW8       29.97R
HANOVER        MIX PCPN  37  35  92 NW9       29.97R
TAPPAHANNOCK*  RAIN      37  33  87 NW8       29.93S
QUINTON*       CLOUDY    36  34  94 NW10      29.93S
CHARLOTTSVILLE CLOUDY    37  35  92 CALM      29.96S
GORDONSVILLE*  CLOUDY    35  34  95 CALM      29.97S
ORANGE*        DRIZZLE   36  34  93 CALM      29.98S
LOUISA*        DRIZZLE   36  36 100 NW3       29.95S
BUMPASS*       CLOUDY    36  35  94 N3        29.96F
FARMVILLE*     CLOUDY    39  39 100 CALM        N/A
CREWE*         CLOUDY    37  35  92 NW5       29.97S
FORT PICKETT*  CLOUDY    37  36  96 N8        29.96F
CHASE CITY*    CLOUDY    40  40 100 NW5       29.98R
CLARKSVILLE*   CLOUDY    37  37 100 NW3       29.98R
SOUTH HILL*    CLOUDY    38  36  93 N7        30.02S
LAWRENCEVILLE* CLOUDY    37  37  97 NW7       29.96R
$$

VAZ088>098-262300-
SOUTHEAST VIRGINIA

CITY           SKY/WX    TMP DP  RH WIND       PRES   REMARKS
NORFOLK        CLOUDY    41  37  86 NW8G23    29.88R
VIRGINIA BEACH CLOUDY    43  40  89 NW20G26   29.86R FOG
NORFOLK NAVAL  CLOUDY    43  37  79 NW22G28   29.90R
WEST POINT*    CLOUDY    39  37  89 NW7       29.94R
SALUDA*        CLOUDY    38  37  94 NW16G23   29.90R
NEWPORT NEWS   CLOUDY    43  37  79 NW17G23   29.89S
LANGLEY AFB    CLOUDY    40  40 100 NW20G26   29.89R
FORT EUSTIS    CLOUDY    39  39 100 NW14G24   29.89S
WILLIAMSBURG*  CLOUDY    41  39  93 NW17G23   29.92R
HR EXEC AP*    CLOUDY    39  36  87 NW7G17    29.92R
FRANKLIN*      CLOUDY    39  39 100 W17G23    29.93R
WAKEFIELD      CLOUDY    39  36  89 NW9       29.94R
$$

VAZ020-022-025-037-045-262300-
WEST CENTRAL AND SOUTHWEST VIRGINIA

CITY           SKY/WX    TMP DP  RH WIND       PRES   REMARKS
STAUNTON*        N/A    N/A N/A N/A MISG        N/A
WAYNESBORO*    CLOUDY    32  32  99 CALM      29.96R
HOT SPRINGS VA   N/A    N/A N/A N/A MISG        N/A
LYNCHBURG      CLOUDY    39  39 100 CALM      29.98F
DANVILLE       CLOUDY    43  38  82 NW3       30.00S
SOUTH BOSTON*  CLOUDY    40  38  92 NW3       29.99S
MARTINSVILLE   CLOUDY    44  44 100 CALM      30.02R
ROANOKE        MOCLDY    38  35  89 N6        30.00R
BLACKSBURG     CLOUDY    37  37 100 W5        29.98S
DUBLIN*        CLOUDY    39  36  87 NW7       29.98S
MARION*        CLOUDY    37  35  92 W8        29.99S
HILLSVILLE*    CLOUDY    36  34  92 W5        29.96R
RICHLANDS*     CLOUDY    39  36  90 CALM      29.97S
WISE*          CLOUDY    41  32  70 CALM      29.97S
ABINGDON*      PTCLDY    42  36  79 SW3       29.99S
$$

MDZ021>025-VAZ099-100-262300-
SOUTHERN MARYLAND AND THE DELMARVA PENINSULA

CITY           SKY/WX    TMP DP  RH WIND       PRES   REMARKS
PATUXENT RIVER LGT RAIN  38  35  89 NW22G29   29.91R FOG
BAY BRIDGE APT LGT RAIN  37  36  93 NW21G29   29.91R
LEONARDTOWN    CLOUDY    36  34  93 NW9       29.92R
DOVER          LGT RAIN  37  37 100 NW15      29.81R
GEORGETOWN     LGT RAIN  39  38  96 NW9G18    29.82R FOG
EASTON         HVY RAIN  37  37 100 N13G18    29.92R
CAMBRIDGE      CLOUDY    37  36  93 NW15G23   29.87R
SALISBURY      LGT RAIN  42  38  85 NW14      29.82R FOG
OCEAN CITY     LGT RAIN  41  39  93 N17G23    29.78R FOG
WALLOPS ISLAND LGT RAIN  40  39  97 NW14      29.81R FOG
ACCOMACK*      DRIZZLE   41  37  87 NW20G31   29.85R
$$

NCZ012>017-030>032-262300-
NORTH CENTRAL AND EASTERN NORTH CAROLINA

CITY           SKY/WX    TMP DP  RH WIND       PRES   REMARKS
ROANOKE RAPIDS CLOUDY    39  36  87 NW9       29.96R
RALEIGH        LGT RAIN  43  37  79 NW5       30.00R
ELIZABETH CITY CLOUDY    47  41  80 W17G24    29.88R
AHOSKIE*       CLOUDY    40  37  90 NW6       29.96R
EDENTON*       CLOUDY    43  41  91 NW12G23   29.92R
CURRITUCK*     CLOUDY    44  42  93 W9        29.87S FOG
KILL DEVIL HLS CLOUDY    46  45  98 NW14G22   29.84R
MANTEO         CLOUDY    45  44  96 NW18G25   29.86R
CAPE HATTERAS  CLOUDY    46  46 100 NW16G28   29.85R
TARBORO*       CLOUDY    42  39  86 NW10G17   29.98R
GOLDSBORO      CLOUDY    45  44  97 NW8       29.97R
WASHINGTON     CLOUDY    45  42  89 NW14G21   29.93R
GREENVILLE     CLOUDY    45  41  87 NW9       29.98R
NEW BERN       CLOUDY    49  44  83 NW13G20   29.94R
WILMINGTON     CLOUDY    50  45  83 NW12      29.99R
$$

VAZ048-262300-
ELSEWHERE

CITY           SKY/WX    TMP DP  RH WIND       PRES   REMARKS
HARRISBURG PA  LGT SNOW  34  32  92 NW16      29.94S FOG     WCI  24
BALTIMORE      FLURRIES  35  33  92 NW9       29.93R
ANNAPOLIS      LGT RAIN  38  35  89 NW16      29.91R
ANDREWS AFB    LGT RAIN  36  32  87 NW10      29.93S
PHILADELPHIA   LGT SNOW  36  33  89 N14       29.84R FOG
WILDWOOD NJ*   CLOUDY    39  34  81 NW13G18   29.75R
HENDERSON NC   CLOUDY    39  37  91 NW3       29.98S
GREENSBORO     MOCLDY    44  39  82 CALM      29.99S
ROCKY MOUNT    CLOUDY    43  39  86 NW10      29.98R
$$

VAZ100-262300-
MARINE

STATION/POSITION TIME  TEMP    WIND        PRES    WAVE   SWELL
                       AIR SEA DIR/SP/G            HT/PER HT/PER
                 (UTC) (F)     (DEG/KT/KT) (MB)    (FT/S) (FT/S)
CAPE MAY NJ      2200   39 49  340/ 18/ 26 1007.1R
LEWES DE         2200   41 49  350/ 24/ 29 1008.4R
15NM E FENWICK I 2200   46 54              1004.5R  13/ 8
OCEAN-CITY-INLET 2200   42 49  350/ 18/ 22 1007.3R
WACHAPREAGUE VA  2200   42 50  290/  3/  9 1010.1R
THOMAS POINT MD  2200   37 47  330/ 19/ 22 1013.6R
GOOSES REEF MD   2200   38     340/ 23/ 29 1012.3R
COVE POINT MD    2200   37     350/ 27/ 33 1011.9R
SOLOMONS ISLAND  2200      49                N/A
BISHOPS HEAD MD  2200   39 45  320/ 14/ 17 1010.6R
PINEY POINT MD   2200          340/ 23/ 25   N/A
POTOMAC MD       2200   40     330/ 21/ 25 1011.5R
CAMBRIDGE MD     2200   39 45  320/ 18/ 22 1011.1R
LEWISETTA VA     2200   39 49  320/ 16/ 23 1012.4R
RAPPAHANNOCK LGT 2200          300/ 30/ 33 1011.2S
STINGRAY PT      2200   40     320/ 19/ 23 1012.2R
YORK RVR RNG VA  2200   40     320/ 24/ 27 1011.6R
YORKTOWN VA      2200   40 51  300/ 20/ 23 1011.8F
JAMESTOWN VA     2200   39     340/ 19/ 25   N/A
DOMINION TERM VA 2200   42     320/ 23/ 34 1011.4F
KIPTOPEKE VA     2200      56  310/ 27/ 30   N/A
CHES BAY BRIDGE  2200   43 52  290/ 25/ 28 1010.8R
CAPE HENRY VA    2200   43     300/ 26/ 29 1009.8R
CHESAPEAKE LGHT  2100   45     330/ 26/ 28 1009.7R
WILLOUBY STN VA  2200   41     310/ 24/ 28 1010.3F
S CRANEY ISL VA  2200          280/ 13/ 23 1011.7S
CAPE HENRY BUOY  2100      56                N/A     8/ 8   2/11
1ST LANDING BUOY 2200   44     310/ 25/ 35 1010.8R
CAPE CHARLES BUO 2200      55                N/A     8/ 8   7/ 8
64NM E OF VA BCH 2200   53 62  310/ 27/ 35 1005.7R  10/ 8   5/ 9
DUCK PIER NC     2200   46 56  310/ 19/ 24 1009.4R
44100 DUCK FRF   2100      60                N/A    10/ 8   2/11
44056 DUCK FRF   2200      58                N/A     8/ 8   2/11
OREGON INLET NC  2200   47 59  290/ 17/ 27 1010.5R
HATTERAS NC      2200   49 63  300/ 25/ 30 1011.2F
DIAMOND SHLS NC  2200   52     290/ 23/ 31 1009.7R  10/ 8   7/ 8
CAPE LOOKOUT NC  2200   49     310/ 18/ 22 1012.5R
$$


USA.gov is the U.S. government's official web portal to all federal, state and local government web resources and services.